Линкольн

США     40°47′21″N   96°41′36″W
темп.,
°C
ветер,
м/с
пор.,
м/с
влажн.,
%
обл.,
%
осадки,
мм/ч
давл.,
гПа
погр.,
м
19 апреля, пн
пн1901:00+8зсз3967100 0.0 1015183
04:00+4с7128326 0.0 1017579
07:00+1с6138099 0.0 1020756
10:00+2с81061100 0.0 1022922
13:00+3с7859100 0.0 10221226
16:00+1с6866100 0.4 10231103
19:00+3с4854100 0.6 10221388
22:00+2ссз3756100 0.1 1023384
20 апреля, вт
вт2001:00+2сз3865100 0.4 1022295
04:00+1сз2275100 0.5 102369
07:000ссз2575100 0.7 1024176
10:00+3ссз48527 0.0 10251614
13:00+6ссз5838100 0.0 10232494
16:00+8ссз4734100 0.0 10212395
19:00+7зсз2444100 0.0 1021215
22:00+2ююз239299 0.8 1023108
21 апреля, ср
ср2101:00+1юз36969 1.4 1023158
04:000зсз512805 0.0 1023422
07:00+1сз510835 0.0 1024583
10:00+5сз710635 0.0 10251372
13:00+7ссз7940100 0.1 10252486
16:00+9ссз6837100 0.0 10232423
19:00+8с3447100 0.0 1022294
22:00+3всв226267 0.0 102420
22 апреля, чт
чт2201:00+2ююв22665 0.0 102521
04:00+1ю336536 0.0 102428
07:000ююз36725 0.0 1025100
10:00+8ю35525 0.0 1023457
13:00+12ю564460 0.0 10201845
16:00+11ююз885899 0.1 10191185
19:00+8ююз6985100 0.8 10181067
22:00+6ю61190100 0.4 1018890
23 апреля, пт
пт2301:00+6ю71387100 0.4 1017903
04:00+6ююз51290100 0.0 1015852
07:00+6ю4993100 0.0 1014564
10:00+7ю4793100 0.0 1013465
13:00+9ю4586100 0.0 1012655
16:00+11ю3377100 0.1 1010826
19:00+10юв2384100 0.1 1010245
22:00+9вюв2293100 0.1 101252